McConnell AFB, KS

11:41 AM CST on December 09, 2019 (GMT -0600)
McConnell Air Force Base

Weather History for KIAB - June, 2019

Change the Weather History Date:

Monday, June 10, 2019

  Actual Average Record
Temperature  
Mean Temperature 65 °F -  
Max Temperature 77 °F 81 °F 98 °F (2006)
Min Temperature 53 °F 61 °F 53 °F (2019)
Growing Degree Days 15 (Base 50)    
Moisture  
Dew Point 45 °F    
Average Humidity 48    
Maximum Humidity 77    
Minimum Humidity 25    
Precipitation  
Precipitation 0.00 in - - ()
Sea Level Pressure  
Sea Level Pressure 30.34 in    
Wind  
Wind Speed 9 mph (North)    
Max Wind Speed 17 mph    
Max Gust Speed 26 mph    
Visibility 10 miles    
Events      
Averages and records for this station are not official NWS values.
T = Trace of Precipitation, MM = Missing Value Source: NWS Daily Summary

Daily Weather History Graph

Daily Weather History Graph

Search for Another Location

Airport or City:

Astronomy

Jun. 10, 2019 Rise Set
Actual Time 6:07 AM CDT 8:50 PM CDT
Civil Twilight 5:36 AM CDT 9:21 PM CDT
Nautical Twilight 4:57 AM CDT 9:59 PM CDT
Astronomical Twilight 4:13 AM CDT 10:43 PM CDT
Moon 1:51 PM CDT (6/10) 2:09 AM CDT (6/10)
Length of Visible Light 15h 44m
Length of Day
14h 42m
First Quarter, 55% of the Moon is Illuminated
Jun 10
First Quarter
Jun 17
Full
Jun 25
Last Quarter
Jul 2
New
Jul 9
First Quarter

Hourly Weather History & Observations

Time (CDT) Temp. Dew Point Humidity Pressure Visibility Wind Dir Wind Speed Gust Speed Precip Events Conditions
12:56 AM 60.3 °F 48.4 °F 65% 30.32 in 10.0 mi NW 13.8 mph - N/A   Clear
1:56 AM 59.2 °F 47.8 °F 66% 30.34 in 10.0 mi NW 11.5 mph - N/A   Clear
2:56 AM 56.1 °F 47.3 °F 72% 30.34 in 10.0 mi NW 8.1 mph - N/A   Clear
3:56 AM 54.7 °F 46.6 °F 74% 30.36 in 10.0 mi NW 6.9 mph - N/A   Clear
4:56 AM 53.4 °F 46.4 °F 77% 30.38 in 10.0 mi WNW 5.8 mph - N/A   Clear
5:56 AM 53.4 °F 46.4 °F 77% 30.40 in 10.0 mi WNW 4.6 mph - N/A   Clear
6:56 AM 54.5 °F 47.1 °F 76% 30.41 in 10.0 mi NNW 6.9 mph - N/A   Clear
7:56 AM 58.5 °F 48.0 °F 68% 30.42 in 10.0 mi North 8.1 mph - N/A   Clear
8:56 AM 63.1 °F 47.7 °F 57% 30.43 in 10.0 mi NNW 8.1 mph - N/A   Clear
9:56 AM 67.5 °F 46.6 °F 47% 30.42 in 10.0 mi North 10.4 mph - N/A   Clear
10:56 AM 70.0 °F 46.4 °F 43% 30.41 in 10.0 mi North 9.2 mph - N/A   Clear
11:56 AM 72.5 °F 42.4 °F 34% 30.40 in 10.0 mi NNE 17.3 mph 21.9 mph N/A   Clear
12:22 PM 73.4 °F 44.6 °F 36% 30.39 in 10.0 mi North 12.7 mph 21.9 mph N/A   Clear
12:28 PM 73.4 °F 42.8 °F 33% 30.39 in 10.0 mi NNE 16.1 mph - N/A   Clear
12:40 PM 73.4 °F 42.8 °F 33% 30.38 in 10.0 mi North 15.0 mph 26.5 mph N/A   Clear
12:56 PM 73.9 °F 44.6 °F 35% 30.37 in 10.0 mi North 15.0 mph 20.7 mph N/A   Clear
1:56 PM 74.8 °F 43.7 °F 33% 30.35 in 10.0 mi North 10.4 mph 23.0 mph N/A   Scattered Clouds
2:56 PM 75.4 °F 43.5 °F 32% 30.34 in 10.0 mi NNE 8.1 mph - N/A   Clear
3:56 PM 76.1 °F 43.2 °F 31% 30.32 in 10.0 mi North 8.1 mph - N/A   Clear
4:56 PM 77.4 °F 38.8 °F 25% 30.29 in 10.0 mi NE 6.9 mph - N/A   Clear
5:56 PM 76.5 °F 41.0 °F 28% 30.28 in 10.0 mi NNE 5.8 mph - N/A   Clear
6:56 PM 75.9 °F 41.4 °F 29% 30.26 in 10.0 mi East 3.5 mph - N/A   Clear
7:56 PM 72.5 °F 43.3 °F 35% 30.25 in 10.0 mi SE 3.5 mph - N/A   Clear
8:56 PM 68.7 °F 45.3 °F 43% 30.26 in 10.0 mi ESE 5.8 mph - N/A   Clear
9:56 PM 67.5 °F 45.9 °F 46% 30.26 in 10.0 mi ESE 4.6 mph - N/A   Clear
10:56 PM 66.7 °F 44.8 °F 45% 30.27 in 10.0 mi East 3.5 mph - N/A   Clear
11:56 PM 66.4 °F 44.4 °F 45% 30.25 in 10.0 mi Calm Calm - N/A   Clear